SCP
0 0 0 0 0 0 0 0 0 0 0 0 0 0 0 0 0 0 0 0 0 0 0 0 0 0 0 0 0 0 0 0 0 0 0 0 0 0 0 0 0 0 0 0
0 0 0 0 0 0 0 0 0 0 0 0 0 0 0 0 0 0 0 0 0 0 0 0 0 0 0 0 0 0 0 0 0 0 0 0 0 0 0 0 0 0 0 0
0 0 0 0 0 0 0 0 0 0 0 0 0 0 0 0 0 0 0 0 0 0 0 0 0 0 0 0 0 0 0 0 0 0 0 0 0 0 0 0 0 0 0 0
0 0 0 0 0 0 0 0 0 0 0 0 0 0 0 0 0 0 0 0 0 0 0 0 0 0 0 0 0 0 0 0 0 0 0 0 0 0 0 0 0 0 0 0
0 0 0 0 0 0 0 0 0 0 0 0 0 0 0 0 0 0 0 0 0 0 0 0 0 0 0 0 0 0 0 0 0 0 0 0 0 0 0 0 0 0 0 0
0 0 0 0 0 0 0 0 0 0 0 0 0 0 0 0 0 0 0 0 0 0 0 0 0 0 0 0 0 0 0 0 0 0 0 0 0 0 0 0 0 0 0 0
0 0 0 0 0 0 0 0 0 0 0 0 0 0 0 0 0 0 0 0 0 0 0 0 0 0 0 0 0 0 0 0 0 0 0 0 0 0 0 0 0 0 0 0
0 0 0 0 0 0 0 0 0 0 0 0 0 0 0 0 0 0 0 0 0 0 0 0 0 0 0 0 0 0 0 0 0 0 0 0 0 0 0 0 0 0 0 0
0 0 0 0 0 0 0 0 0 0 0 0 0 0 0 0 0 0 0 0 0 0 0 0 0 0 0 0 0 0 0 0 0 0 0 0 0 0 0 0 0 0 0 0
0 0 0 0 0 0 0 0 0 0 0 0 0 0 0 0 0 0 0 0 0 0 0 0 0 0 0 0 0 0 0 0 0 0 0 0 0 0 0 0 0 0 0 0
0 0 0 0 0 0 0 0 0 0 0 0 0 0 0 0 0 0 0 0 0 0 0 0 0 0 0 0 0 0 0 0 0 0 0 0 0 0 0 0 0 0 0 0
0 0 0 0 0 0 0 0 0 0 0 0 0 0 0 0 0 0 0 0 0 0 0 0 0 0 0 0 0 0 0 0 0 0 0 0 0 0 0 0 0 0 0 0
0 0 0 0 0 0 0 0 0 0 0 0 0 0 0 0 0 0 0 0 0 0 0 0 0 0 0 0 0 0 0 0 0 0 0 0 0 0 0 0 0 0 0 0
0 0 0 0 0 0 0 0 0 0 0 0 0 0 0 0 0 0 0 0 0 0 0 0 0 0 0 0 0 0 0 0 0 0 0 0 0 0 0 0 0 0 0 0
0 0 0 0 0 0 0 0 0 0 0 0 0 0 0 0 0 0 0 0 0 0 0 0 0 0 0 0 0 0 0 0 0 0 0 0 0 0 0 0 0 0 0 0
0 0 0 0 0 0 0 0 0 0 0 0 0 0 0 0 0 0 0 0 0 0 0 0 0 0 0 0 0 0 0 0 0 0 0 0 0 0 0 0 0 0 0 0
0 0 0 0 0 0 0 0 0 0 0 0 0 0 0 0 0 0 0 0 0 0 0 0 0 0 0 0 0 0 0 0 0 0 0 0 0 0 0 0 0 0 0 0
0 0 0 0 0 0 0 0 0 0 0 0 0 0 0 0 0 0 0 0 0 0 0 0 0 0 0 0 0 0 0 0 0 0 0 0 0 0 0 0 0 0 0 0
0 0 0 0 0 0 0 0 0 0 0 0 0 0 0 0 0 0 0 0 0 0 0 0 0 0 0 0 0 0 0 0 0 0 0 0 0 0 0 0 0 0 0 0
0 0 0 0 0 0 0 0 0 0 0 0 0 0 0 0 0 0 0 0 0 0 0 0 0 0 0 0 0 0 0 0 0 0 0 0 0 0 0 0 0 0 0 0
0 0 0 0 0 0 0 0 0 0 0 0 0 0 0 0 0 0 0 0 0 0 0 0 0 0 0 0 0 0 0 0 0 0 0 0 0 0 0 0 0 0 0 0
0 0 0 0 0 0 0 0 0 0 0 0 0 0 0 0 0 0 0 0 0 0 0 0 0 0 0 0 0 0 0 0 0 0 0 0 0 0 0 0 0 0 0 0
0 0 0 0 0 0 0 0 0 0 0 0 0 0 0 0 0 0 0 0 0 0 0 0 0 0 0 0 0 0 0 0 0 0 0 0 0 0 0 0 0 0 0 0
0 0 0 0 0 0 0 0 0 0 0 0 0 0 0 0 0 0 0 0 0 0 0 0 0 0 0 0 0 0 0 0 0 0 0 0 0 0 0 0 0 0 0 0
0 0 0 0 0 0 0 0 0 0 0 0 0 0 0 0 0 0 0 0 0 0 0 0 0 0 0 0 0 0 0 0 0 0 0 0 0 0 0 0 0 0 0 0
0 0 0 0 0 0 0 0 0 0 0 0 0 0 0 0 0 0 0 0 0 0 0 0 0 0 0 0 0 0 0 0 0 0 0 0 0 0 0 0 0 0 0 0
0 0 0 0 0 0 0 0 0 0 0 0 0 0 0 0 0 0 0 0 0 0 0 0 0 0 0 0 0 0 0 0 0 0 0 0 0 0 0 0 0 0 0 0
Wind_Speed
2 3 6 7 2 4 3 2 4 7 6 3 1 2 3 4 5 3 2 2 2 2 2 2 2 3 3 3 3 2 2 1 1 1 1 2 3 4 5 5 4 4 5 5
7 15 16 15 14 8 6 5 9 10 4 2 2 1 2 4 4 4 4 3 1 2 3 3 2 1 1 3 4 4 4 4 4 4 3 2 3 4 5 5 4 5 5 5
0 6 9 9 7 7 6 5 4 4 4 5 3 2 1 1 2 4 5 5 4 3 3 4 3 2 1 2 4 5 5 5 5 5 5 5 4 3 4 4 3 4 3 4
2 4 5 1 4 6 10 6 4 6 6 6 6 5 3 3 1 1 3 5 6 6 4 2 4 4 3 3 3 4 5 5 5 5 5 6 6 4 1 2 2 1 0 2
3 4 4 2 3 2 5 2 1 5 5 5 4 3 1 3 3 2 2 4 5 5 4 2 5 5 4 4 4 4 4 3 3 3 3 3 4 4 0 1 1 2 2 1
4 4 2 4 4 3 8 1 2 3 3 3 4 1 3 4 4 4 3 3 4 4 3 2 2 4 4 3 4 3 2 4 4 4 5 6 6 4 1 2 1 2 2 2
4 3 2 5 3 1 4 6 4 3 4 3 3 4 3 4 5 5 4 3 2 2 4 4 2 4 4 4 3 2 0 2 3 3 6 7 5 2 1 2 3 2 1 2
3 2 5 5 1 3 6 3 2 4 5 4 3 1 4 6 5 5 4 3 1 2 4 4 4 5 6 4 2 3 2 2 2 2 2 1 1 2 3 4 5 5 4 4
6 7 8 4 5 5 5 4 3 6 5 5 3 2 3 3 4 4 4 2 0 2 3 3 4 4 5 2 2 2 3 3 2 3 3 3 3 3 3 4 4 3 3 4
2 3 5 4 4 4 5 5 4 6 7 7 5 4 4 3 3 3 2 2 2 2 2 1 1 2 2 1 2 3 2 1 1 0 1 2 1 2 2 1 2 2 2 3
2 3 4 3 5 7 5 5 6 7 7 8 7 6 5 4 4 4 3 3 3 3 2 1 1 1 1 0 2 2 1 0 1 2 2 1 2 2 1 1 1 2 1 1
6 7 7 8 7 7 7 7 9 8 6 7 8 8 6 6 5 5 5 4 4 3 2 1 1 2 2 1 1 1 1 0 0 1 2 2 2 2 5 3 1 2 3 3
8 7 7 7 9 9 8 9 9 8 8 8 8 8 8 6 6 6 5 5 5 5 5 4 2 3 3 3 2 1 2 2 1 1 1 2 2 2 0 2 2 3 4 5
7 6 5 6 8 9 8 9 9 8 7 8 9 7 7 7 6 6 6 6 5 5 6 6 5 5 6 4 2 2 2 2 2 1 1 1 1 0 1 0 1 2 3 3
8 7 7 6 7 7 7 8 8 8 6 6 8 8 8 9 8 7 5 5 5 5 5 5 5 5 3 2 3 2 1 1 1 2 2 2 2 2 2 2 1 1 2 3
9 7 7 7 8 8 7 8 9 9 7 6 7 8 9 9 7 6 6 6 6 5 5 5 6 5 2 3 5 4 3 4 5 4 4 3 3 2 1 1 1 2 2 3
11 9 9 8 9 8 7 8 9 10 8 7 7 7 8 8 7 6 6 6 6 6 6 7 7 5 3 4 5 4 4 5 8 5 4 3 3 2 2 1 1 1 2 3
15 14 11 11 9 8 9 8 8 7 8 8 8 8 8 9 9 8 7 6 5 4 4 6 7 6 5 5 5 4 4 4 3 3 2 2 2 2 2 1 0 2 2 3
11 12 11 11 10 11 10 8 8 7 7 8 9 9 8 8 8 7 6 6 6 5 5 6 9 8 7 7 7 4 4 4 3 2 1 2 3 2 1 1 2 3 2 2
10 11 11 10 11 11 10 9 9 7 8 9 9 8 7 7 7 6 6 6 7 7 8 8 8 7 7 7 8 4 4 3 3 2 2 3 2 2 2 3 3 3 3 2
10 10 10 11 12 13 12 10 9 9 9 9 9 9 8 8 7 7 6 5 7 7 8 11 7 6 6 6 7 4 4 3 3 3 3 2 2 3 3 4 3 3 2 2
10 9 9 9 10 9 9 9 10 11 10 9 9 9 8 7 8 7 6 6 7 9 7 5 5 7 8 8 4 4 4 3 3 3 3 3 4 4 4 4 4 3 3 3
8 8 8 9 10 9 9 9 11 11 11 10 10 9 9 8 7 7 6 6 5 9 7 5 8 11 12 7 5 5 4 4 4 4 4 5 5 5 5 5 4 4 4 4
6 7 7 7 8 9 9 9 9 9 10 10 10 10 9 7 6 6 6 7 10 11 7 9 14 15 13 6 5 5 5 4 4 4 5 5 5 5 4 4 4 4 5 5
6 6 6 7 8 8 9 9 8 8 8 6 7 8 8 7 7 6 6 7 12 13 7 11 16 16 10 6 6 6 5 5 5 5 5 4 4 4 4 4 5 5 4 4
6 5 6 9 10 8 7 7 7 6 6 6 6 6 6 6 7 7 7 8 12 11 8 7 8 10 7 6 6 5 5 4 5 5 4 4 4 3 4 4 6 5 4 4
4 4 4 6 7 8 8 9 8 8 8 7 6 6 7 6 6 8 9 7 7 6 5 6 6 6 6 5 5 5 4 4 4 5 5 4 4 3 4 4 4 4 3 3
Wind_Direction
285 27 91 62 95 147 119 265 167 152 139 163 83 32 4 355 358 25 23 342 284 263 279 311 341 4 23 28 36 85 104 86 299 322 43 112 100 84 85 82 69 55 47 33
69 83 78 58 33 45 50 48 113 115 110 158 141 122 6 4 15 25 19 4 311 243 227 234 257 304 16 32 33 57 70 57 43 34 28 41 75 95 99 95 76 57 50 48
258 145 88 55 36 67 55 8 127 146 164 171 180 193 206 5 22 9 357 353 343 323 252 215 205 200 185 70 62 62 59 54 49 41 34 19 11 63 97 99 89 68 46 46
34 53 82 151 306 119 107 65 83 127 161 183 187 185 188 190 180 339 336 329 323 319 311 211 174 164 150 119 92 75 57 44 39 34 25 8 348 342 55 90 109 119 17 18
96 89 90 269 268 191 126 50 32 140 168 191 170 122 263 206 197 212 279 302 309 309 297 200 173 168 150 132 108 75 42 10 354 344 334 317 300 290 329 129 219 228 224 215
96 106 143 247 268 172 113 167 252 156 159 174 147 121 270 201 192 209 256 304 323 331 360 74 136 150 132 128 106 82 13 320 304 287 279 267 260 253 192 139 209 226 236 226
83 109 220 250 305 100 189 224 209 164 157 152 168 203 219 170 189 204 226 270 313 29 46 42 57 106 105 106 115 124 183 300 299 268 258 257 265 274 70 70 59 43 349 307
92 134 244 267 82 160 206 210 191 164 166 165 185 190 161 170 185 194 212 236 219 95 70 46 50 76 81 78 115 138 130 64 32 348 323 55 94 66 62 62 51 30 9 343
170 203 221 205 171 187 168 170 161 157 163 158 161 163 157 165 174 186 193 206 320 96 85 66 62 79 86 59 48 64 63 45 21 14 21 36 84 89 75 66 65 43 20 342
123 212 197 178 158 168 183 187 160 147 151 152 153 154 135 119 122 127 130 136 122 113 115 90 65 94 119 102 52 44 31 35 148 75 25 6 24 81 99 94 76 63 27 333
154 174 145 174 168 169 180 165 137 137 150 155 145 145 151 150 151 156 161 168 177 184 195 216 320 356 350 131 93 70 12 4 130 128 129 57 25 30 57 15 160 139 162 299
199 198 173 199 193 166 149 148 152 155 156 157 155 157 158 165 175 176 182 185 188 207 227 241 324 330 331 357 99 146 165 294 333 59 81 99 95 43 38 44 59 173 191 189
177 181 171 183 183 178 171 174 173 167 164 162 169 166 163 171 184 186 195 200 199 210 227 236 252 283 290 298 303 271 220 208 210 189 144 154 164 148 140 320 295 241 218 218
158 142 148 163 180 189 182 173 173 172 174 166 169 169 166 170 180 190 202 211 207 208 223 226 230 257 272 271 255 268 237 194 172 184 150 136 140 156 197 210 341 327 305 299
172 164 177 185 181 183 163 148 151 172 186 175 172 174 174 176 186 198 193 165 144 162 201 202 201 232 247 121 97 74 80 69 65 52 40 45 54 74 84 86 72 11 356 1
186 180 171 167 182 188 172 168 171 185 187 172 168 183 182 182 181 178 168 156 150 168 182 179 191 217 207 114 101 83 65 62 76 66 55 47 37 38 48 56 46 19 355 334
169 187 189 186 197 200 187 177 183 192 190 178 173 172 163 161 166 179 185 186 183 188 184 185 202 214 196 146 126 113 95 78 79 77 69 61 41 11 328 309 317 355 355 21
185 190 188 185 186 189 182 172 165 172 189 192 171 162 161 165 177 189 196 197 192 192 206 202 194 184 175 159 141 130 121 115 106 99 71 40 0 321 294 283 264 103 88 75
185 193 196 190 181 173 174 176 176 176 177 170 166 176 187 190 193 194 193 191 196 210 225 211 185 170 170 171 153 143 143 145 144 156 205 299 310 295 259 175 145 128 112 92
182 189 194 193 181 173 180 186 182 179 178 169 166 177 192 202 198 187 177 187 204 209 204 196 187 177 176 178 164 160 164 170 187 221 251 268 271 238 180 159 150 144 139 138
190 192 193 190 186 189 189 184 175 177 179 172 170 181 191 196 187 175 174 203 231 215 194 191 186 181 180 182 176 167 172 186 208 230 252 253 206 179 176 176 180 186 191 194
198 197 193 185 183 188 185 174 172 174 174 178 184 183 180 186 192 192 198 206 218 197 181 180 184 185 182 177 172 175 189 207 222 233 230 201 189 191 201 207 210 216 220 226
201 199 192 183 179 179 172 169 173 174 178 184 184 182 185 192 190 188 217 225 205 185 174 178 184 179 173 166 173 188 206 221 230 230 210 198 196 198 205 213 217 217 217 223
193 199 197 186 166 158 167 180 180 182 186 188 189 186 183 188 204 212 211 206 186 171 170 176 176 176 171 177 186 198 213 227 233 223 204 200 203 207 208 207 211 219 224 228
196 191 176 160 162 173 181 181 179 184 186 194 201 198 190 184 185 193 180 173 169 163 167 181 183 184 183 189 194 203 212 220 215 199 195 198 207 218 221 215 213 217 222 227
197 192 184 182 182 182 180 178 182 187 185 192 203 201 193 186 175 167 170 172 173 175 173 179 192 197 201 199 201 208 212 213 207 201 199 200 208 212 211 216 228 230 230 229
209 210 205 202 199 190 185 185 189 195 194 192 198 201 195 187 174 174 173 170 173 179 179 180 190 197 200 200 206 213 210 198 190 189 193 194 196 198 208 222 225 225 219 216